Flag for India Weather past 2 weeks in Kathua, Jammu and Kashmir, India

Now
90 °F

Passing clouds.


Feels Like: 87 °F
Forecast: 70 / 102 °F
Wind: 5 mph from Northeast

Location: Amritsar Airport

Current Time: May 23, 2015 at 12:12:18 AM

Latest Report: May 22, 2015 at 11:30 PM


Visibility: 2 mi

Pressure: 29.53 "Hg

Humidity: 26%

Dew point: 50 °F

Location of KathuaLocation

Historic Weather in Kathua — Graph

°F

Kathua temperature yesterday

Maximum temperature yesterday: 108 °F (at 1:00 PM)
Minimum temperature yesterday: 73 °F (at 6:00 AM)
Average temperature yesterday: 96 °F

Past Weeks' High & Low Weather Summary

 TemperatureHumidityPressure
High108 °F (May 8, 2:00 PM)100% (May 13, 2:00 AM)29.89 "Hg (May 13, 2:00 AM)
Low68 °F (May 13, 2:00 AM)10% (May 8, 1:00 PM)29.47 "Hg (May 22, 4:30 PM)
Average87 °F46%29.67 "Hg
* Reported May 7 10:30 PM — May 22 10:30 PM, Kathua, Weather by CustomWeather, © 2015

Note: Actual official high and low records may vary slightly from our data, if they occured in-between our weather recording intervals... More about our weather records

Advertising

Kathua weather history for previous 24 hours

 ConditionsComfort  
Time TempWeatherWind HumidityBarometerVisibility
10:30 PM
Fri, May 22
88 °FPassing clouds.6 mph33%29.53 "Hg2 mi
10:00 PM95 °FPassing clouds.8 mph25%29.53 "Hg2 mi
9:30 PM93 °FPassing clouds.2 mph30%29.53 "Hg2 mi
9:00 PM97 °FPassing clouds.6 mph23%29.50 "Hg2 mi
8:30 PM97 °FPassing clouds.No wind28%29.50 "Hg2 mi
8:00 PM97 °FPassing clouds.No wind25%29.50 "Hg2 mi
7:30 PM99 °FPassing clouds.No wind22%29.47 "Hg3 mi
7:00 PM100 °FDuststorm.No wind20%29.47 "Hg3 mi
6:30 PM102 °FDuststorm.No wind18%29.47 "Hg3 mi
6:00 PM106 °FDuststorm.6 mph13%29.47 "Hg3 mi
5:30 PM106 °FDuststorm.8 mph13%29.47 "Hg3 mi
5:00 PM106 °FPassing clouds.8 mph13%29.47 "Hg3 mi
4:30 PM108 °FDuststorm.5 mph13%29.47 "Hg3 mi
4:00 PM108 °FDuststorm.9 mph13%29.50 "Hg3 mi
3:30 PM108 °FDuststorm.9 mph12%29.50 "Hg3 mi
3:00 PM108 °FDuststorm.6 mph13%29.50 "Hg3 mi
1:00 PM108 °FDuststorm.6 mph15%29.56 "Hg3 mi
12:30 PM106 °FDuststorm.7 mph14%29.56 "Hg3 mi
12:00 PM104 °FDuststorm.5 mph14%29.56 "Hg3 mi
11:30 AM104 °FDuststorm.5 mph14%29.59 "Hg3 mi
11:00 AM102 °FDuststorm.6 mph16%29.59 "Hg3 mi
10:30 AM100 °FDuststorm.6 mph20%29.59 "Hg2 mi
10:00 AM97 °FHaze.2 mph25%29.59 "Hg2 mi
9:30 AM95 °FHaze.No wind30%29.59 "Hg2 mi
9:00 AM91 °FHaze.No wind32%29.59 "Hg2 mi
8:30 AM90 °FHaze.No wind31%29.59 "Hg2 mi
8:00 AM86 °FHaze.No wind38%29.59 "Hg2 mi
6:30 AM77 °FHaze.No wind54%29.56 "Hg2 mi
6:00 AM73 °FHaze.No wind61%29.56 "Hg2 mi
5:00 AM75 °FHaze.No wind57%29.56 "Hg2 mi
1:30 AM82 °FDuststorm.No wind45%29.56 "Hg2 mi
1:00 AM82 °FDuststorm.No wind45%29.56 "Hg2 mi
12:30 AM82 °FDuststorm.No wind48%29.56 "Hg2 mi
Weather by CustomWeather, © 2015

See weather overviewHow to use our weather pages